Weather in Subang

Malaysia     3°09′32″N   101°31′10″E
temp.,
°C
wind,
m/s
gust,
m/s
humid.,
%
clouds,
%
prec.,
mm/h
press.,
hPa
HPBL,
m
9 march, tue
tue923:00+25ene118622 0.1 101325
02:00+24ene118813 0.3 101224
05:00+23nne129189 0.0 101133
08:00+23ne128694 0.0 101262
11:00+32n125395 0.0 10131102
14:00+36nnw143381 0.0 10102249
17:00+33nw34393 0.0 10081718
20:00+25wsw128618 0.0 100946
10 march, wed
wed1023:00+24nne11914 0.8 101324
02:00+23ne11912 0.8 101224
05:00+22ne128952 0.0 101128
08:00+23ene118735 0.0 101337
11:00+32e005066 0.0 10141101
14:00+37nnw123133 0.0 10102245
17:00+32w434633 0.0 10081014
20:00+25nnw118116 0.0 101042
11 march, thu
thu1123:00+24ene128620 0.1 101227
02:00+24ene118529 0.1 101224
05:00+23ne118555 0.0 101025
08:00+24ene118473 0.0 101237
11:00+33ese014847 0.0 10131172
14:00+33w334640 0.0 10101342
17:00+27w1481100 1.8 1008179
20:00+25wsw0090100 6.4 101024
12 march, fri
fri1223:00+24e1189100 1.7 101224
02:00+23ne129287 1.8 101226
05:00+22ne129242 0.0 101025
08:00+23ene128968 0.0 101238
11:00+32ne0153100 0.0 1013755
14:00+36ene0237100 0.0 10102129
17:00+30w2361100 0.1 1008428
20:00+25w1184100 1.4 101024
13 march, sat
sat1323:00+25ne1285100 0.5 101226
02:00+24ne118694 0.6 101224
05:00+23ne128897 0.1 101028
08:00+24ene118485 0.1 101240
11:00+31e0155100 0.0 1013787
14:00+35n1142100 0.0 10101699
17:00+30wnw236371 0.9 1008848
20:00+26nw128478 3.6 101055